• In Uzbekistan
  • List of Countries
  • For 7 days
  • Water Temperature
  • Satellite Maps
  • Weather Map
  • Weather Widgets
  • user-avatar
    Login

    Hourly Weather Badhan

    Today, 23 February, Saturday

    Time Temperature Precipitation Wind Pressure Humidity
    00:00 +20°C° 0 mm 4 mps 656 mmHg 67%
    01:00 +20°C° 0 mm 4 mps 656 mmHg 71%
    02:00 +19°C° 0 mm 3 mps 655 mmHg 74%
    03:00 +19°C° 0 mm 2 mps 655 mmHg 78%
    04:00 +18°C° 0 mm 2 mps 655 mmHg 81%
    05:00 +18°C° 0 mm 2 mps 655 mmHg 83%
    06:00 +18°C° 0 mm 2 mps 655 mmHg 85%
    07:00 +19°C° 0 mm 2 mps 656 mmHg 77%
    08:00 +21°C° 0 mm 3 mps 657 mmHg 69%
    09:00 +22°C° 0 mm 3 mps 657 mmHg 59%
    10:00 +25°C° 0 mm 3 mps 658 mmHg 49%
    11:00 +27°C° 0 mm 3 mps 658 mmHg 40%
    12:00 +29°C° 0 mm 4 mps 658 mmHg 30%
    13:00 +29°C° 0 mm 4 mps 657 mmHg 27%
    14:00 +30°C° 0 mm 4 mps 657 mmHg 24%
    15:00 +32°C° 0 mm 4 mps 657 mmHg 21%
    16:00 +30°C° 0 mm 4 mps 656 mmHg 23%
    17:00 +29°C° 0 mm 5 mps 656 mmHg 25%
    18:00 +28°C° 0 mm 6 mps 656 mmHg 27%
    19:00 +27°C° 0 mm 5 mps 656 mmHg 36%
    20:00 +26°C° 0 mm 5 mps 656 mmHg 45%
    21:00 +25°C° 0 mm 4 mps 656 mmHg 54%
    22:00 +23°C° 0 mm 4 mps 656 mmHg 59%
    23:00 +22°C° 0 mm 4 mps 656 mmHg 65%

    Tomorrow, 24 February, Sunday

    Time Temperature Precipitation Wind Pressure Humidity
    00:00 +21°C° 0 mm 4 mps 655 mmHg 71%
    01:00 +21°C° 0 mm 3 mps 655 mmHg 74%
    02:00 +20°C° 0 mm 3 mps 655 mmHg 77%
    03:00 +20°C° 0 mm 3 mps 655 mmHg 80%
    04:00 +19°C° 0 mm 3 mps 655 mmHg 83%
    05:00 +19°C° 0 mm 2 mps 655 mmHg 86%
    06:00 +18°C° 0 mm 2 mps 655 mmHg 88%
    07:00 +20°C° 0 mm 2 mps 655 mmHg 78%
    08:00 +21°C° 0 mm 2 mps 656 mmHg 67%
    09:00 +23°C° 0 mm 2 mps 657 mmHg 57%
    10:00 +25°C° 0 mm 3 mps 657 mmHg 46%
    11:00 +27°C° 0 mm 3 mps 657 mmHg 35%
    12:00 +29°C° 0 mm 3 mps 658 mmHg 25%
    13:00 +30°C° 0 mm 4 mps 657 mmHg 23%
    14:00 +30°C° 0 mm 4 mps 657 mmHg 21%
    15:00 +32°C° 0 mm 4 mps 656 mmHg 19%
    16:00 +30°C° 0 mm 5 mps 656 mmHg 22%
    17:00 +29°C° 0 mm 5 mps 656 mmHg 25%
    18:00 +28°C° 0 mm 6 mps 656 mmHg 28%
    19:00 +27°C° 0 mm 6 mps 656 mmHg 36%
    20:00 +26°C° 0 mm 5 mps 657 mmHg 44%
    21:00 +25°C° 0 mm 5 mps 657 mmHg 52%
    22:00 +23°C° 0 mm 5 mps 657 mmHg 57%
    23:00 +22°C° 0 mm 5 mps 657 mmHg 62%

    Day after tomorrow, 25 February, Monday

    Time Temperature Precipitation Wind Pressure Humidity
    00:00 +21°C° 0 mm 4 mps 656 mmHg 67%
    01:00 +21°C° 0 mm 4 mps 656 mmHg 71%
    02:00 +20°C° 0 mm 4 mps 655 mmHg 74%
    03:00 +20°C° 0 mm 3 mps 655 mmHg 78%
    04:00 +19°C° 0 mm 3 mps 655 mmHg 80%
    05:00 +19°C° 0 mm 3 mps 655 mmHg 82%
    06:00 +19°C° 0 mm 3 mps 655 mmHg 84%
    07:00 +20°C° 0 mm 3 mps 656 mmHg 72%
    08:00 +22°C° 0 mm 4 mps 657 mmHg 60%
    09:00 +25°C° 0 mm 4 mps 658 mmHg 48%
    10:00 +26°C° 0 mm 4 mps 658 mmHg 39%
    11:00 +28°C° 0 mm 5 mps 658 mmHg 30%
    12:00 +30°C° 0 mm 5 mps 658 mmHg 22%
    13:00 +30°C° 0 mm 5 mps 658 mmHg 21%
    14:00 +30°C° 0 mm 5 mps 657 mmHg 20%
    15:00 +32°C° 0 mm 6 mps 657 mmHg 20%
    16:00 +30°C° 0 mm 6 mps 656 mmHg 23%
    17:00 +29°C° 0 mm 6 mps 656 mmHg 26%
    18:00 +28°C° 0 mm 6 mps 656 mmHg 29%
    19:00 +26°C° 0 mm 6 mps 656 mmHg 32%
    20:00 +24°C° 0 mm 6 mps 657 mmHg 35%
    21:00 +23°C° 0 mm 7 mps 657 mmHg 38%
    22:00 +22°C° 0 mm 6 mps 657 mmHg 40%
    23:00 +21°C° 0 mm 5 mps 656 mmHg 43%

    26 February, Tuesday

    Time Temperature Precipitation Wind Pressure Humidity
    00:00 +20°C° 0 mm 4 mps 656 mmHg 46%
    01:00 +20°C° 0 mm 3 mps 656 mmHg 46%
    02:00 +19°C° 0 mm 2 mps 655 mmHg 47%
    03:00 +19°C° 0 mm 2 mps 655 mmHg 47%
    04:00 +19°C° 0 mm 2 mps 655 mmHg 49%
    05:00 +19°C° 0 mm 1 mps 655 mmHg 51%
    06:00 +19°C° 0 mm 1 mps 656 mmHg 53%
    07:00 +20°C° 0 mm 2 mps 657 mmHg 49%
    08:00 +21°C° 0 mm 2 mps 658 mmHg 44%
    09:00 +24°C° 0 mm 3 mps 659 mmHg 40%
    10:00 +26°C° 0 mm 4 mps 659 mmHg 32%
    11:00 +27°C° 0 mm 5 mps 658 mmHg 24%
    12:00 +29°C° 0 mm 6 mps 658 mmHg 15%
    13:00 +30°C° 0 mm 6 mps 658 mmHg 14%
    14:00 +30°C° 0 mm 7 mps 657 mmHg 13%
    15:00 +30°C° 0 mm 7 mps 656 mmHg 12%
    16:00 +30°C° 0 mm 7 mps 656 mmHg 14%
    17:00 +29°C° 0 mm 6 mps 656 mmHg 15%
    18:00 +28°C° 0 mm 6 mps 656 mmHg 16%
    19:00 +27°C° 0 mm 6 mps 656 mmHg 21%
    20:00 +24°C° 0 mm 6 mps 657 mmHg 25%
    21:00 +23°C° 0 mm 7 mps 657 mmHg 29%
    22:00 +22°C° 0 mm 6 mps 656 mmHg 33%
    23:00 +21°C° 0 mm 5 mps 656 mmHg 37%

    27 February, Wednesday

    Time Temperature Precipitation Wind Pressure Humidity
    00:00 +20°C° 0 mm 4 mps 655 mmHg 41%
    01:00 +19°C° 0 mm 3 mps 655 mmHg 42%
    02:00 +19°C° 0 mm 2 mps 654 mmHg 44%
    03:00 +19°C° 0 mm 1 mps 654 mmHg 45%
    04:00 +19°C° 0 mm 1 mps 654 mmHg 42%
    05:00 +18°C° 0 mm 1 mps 654 mmHg 38%
    06:00 +18°C° 0 mm 1 mps 655 mmHg 35%
    07:00 +19°C° 0 mm 2 mps 656 mmHg 29%
    08:00 +22°C° 0 mm 3 mps 657 mmHg 23%
    09:00 +25°C° 0 mm 4 mps 658 mmHg 16%
    10:00 +26°C° 0 mm 4 mps 658 mmHg 16%
    11:00 +28°C° 0 mm 5 mps 657 mmHg 15%
    12:00 +29°C° 0 mm 5 mps 657 mmHg 14%
    13:00 +30°C° 0 mm 5 mps 657 mmHg 14%
    14:00 +30°C° 0 mm 5 mps 656 mmHg 14%
    15:00 +32°C° 0 mm 5 mps 656 mmHg 14%
    16:00 +30°C° 0 mm 5 mps 655 mmHg 15%
    17:00 +29°C° 0 mm 5 mps 655 mmHg 16%
    18:00 +28°C° 0 mm 5 mps 655 mmHg 17%
    19:00 +27°C° 0 mm 4 mps 656 mmHg 19%
    20:00 +26°C° 0 mm 4 mps 656 mmHg 21%
    21:00 +25°C° 0 mm 4 mps 656 mmHg 23%
    22:00 +25°C° 0 mm 4 mps 656 mmHg 27%
    23:00 +24°C° 0 mm 3 mps 655 mmHg 30%

    28 February, Thursday

    Time Temperature Precipitation Wind Pressure Humidity
    00:00 +22°C° 0 mm 3 mps 655 mmHg 34%
    01:00 +21°C° 0 mm 3 mps 654 mmHg 39%
    02:00 +20°C° 0 mm 2 mps 654 mmHg 44%
    03:00 +20°C° 0 mm 1 mps 653 mmHg 49%
    04:00 +20°C° 0 mm 1 mps 654 mmHg 51%
    05:00 +19°C° 0 mm 1 mps 654 mmHg 53%
    06:00 +19°C° 0 mm 1 mps 654 mmHg 56%
    07:00 +20°C° 0 mm 1 mps 655 mmHg 48%
    08:00 +22°C° 0 mm 1 mps 656 mmHg 40%
    09:00 +24°C° 0 mm 2 mps 657 mmHg 33%
    10:00 +26°C° 0 mm 2 mps 656 mmHg 28%
    11:00 +28°C° 0 mm 2 mps 656 mmHg 23%
    12:00 +30°C° 0 mm 2 mps 656 mmHg 18%
    13:00 +30°C° 0 mm 2 mps 656 mmHg 17%
    14:00 +31°C° 0 mm 2 mps 655 mmHg 16%
    15:00 +32°C° 0 mm 1 mps 655 mmHg 14%
    16:00 +31°C° 0 mm 2 mps 655 mmHg 15%
    17:00 +31°C° 0 mm 2 mps 655 mmHg 15%
    18:00 +30°C° 0 mm 3 mps 655 mmHg 15%
    19:00 +29°C° 0 mm 3 mps 655 mmHg 17%
    20:00 +28°C° 0 mm 3 mps 656 mmHg 20%
    21:00 +27°C° 0 mm 3 mps 656 mmHg 22%
    22:00 +26°C° 0 mm 3 mps 655 mmHg 26%
    23:00 +25°C° 0 mm 2 mps 655 mmHg 30%
    Show more